| time (UTC) | temp C | wind direction | speed KPH | gust KPH | rain 1hr cm | rain 24hr cm | rain mn cm | humidity % | barometer mb |
| 20260506135540 | 23 | 74 | 1.6 | 14.5 | 0.00 | 0.30 | 0.00 | 43 | 1003.5 |
| 20260506135039 | 24 | 42 | 6.4 | 17.7 | 0.00 | 0.30 | 0.00 | 40 | 1003.5 |
| 20260506134556 | 24 | 70 | 8.0 | 17.7 | 0.00 | 0.30 | 0.00 | 39 | 1003.5 |
| 20260506134042 | 25 | 68 | 3.2 | 11.3 | 0.00 | 0.30 | 0.00 | 40 | 1003.5 |
| 20260506133540 | 25 | 71 | 3.2 | 14.5 | 0.00 | 0.30 | 0.00 | 39 | 1003.5 |
| 20260506133107 | 25 | 200 | 1.6 | 16.1 | 0.00 | 0.30 | 0.00 | 41 | 1003.7 |
| 20260506132540 | 25 | 69 | 6.4 | 16.1 | 0.00 | 0.30 | 0.00 | 39 | 1003.8 |
| 20260506132043 | 25 | 89 | 4.8 | 12.9 | 0.00 | 0.30 | 0.00 | 39 | 1003.8 |
| 20260506131614 | 25 | 85 | 3.2 | 9.7 | 0.00 | 0.30 | 0.00 | 40 | 1003.9 |
| 20260506131042 | 25 | 0 | 3.2 | 9.7 | 0.00 | 0.30 | 0.00 | 42 | 1004.0 |
| 20260506130540 | 24 | 81 | 1.6 | 9.7 | 0.00 | 0.30 | 0.00 | 41 | 1004.0 |
| 20260506130054 | 24 | 84 | 1.6 | 8.0 | 0.00 | 0.30 | 0.00 | 41 | 1004.2 |
| 20260506125539 | 24 | 98 | 1.6 | 14.5 | 0.00 | 0.30 | 0.00 | 41 | 1004.2 |
| 20260506125039 | 24 | 74 | 3.2 | 14.5 | 0.00 | 0.30 | 0.00 | 42 | 1004.3 |
| 20260506124553 | 24 | 98 | 3.2 | 11.3 | 0.00 | 0.30 | 0.00 | 43 | 1004.3 |
| 20260506124039 | 23 | 138 | 3.2 | 11.3 | 0.00 | 0.30 | 0.00 | 43 | 1004.4 |
| 20260506123542 | 23 | 267 | 0.0 | 14.5 | 0.00 | 0.30 | 0.00 | 46 | 1004.4 |
| 20260506123054 | 23 | 88 | 3.2 | 14.5 | 0.00 | 0.30 | 0.00 | 44 | 1004.6 |
| 20260506122540 | 23 | 63 | 3.2 | 14.5 | 0.00 | 0.30 | 0.00 | 44 | 1004.6 |
| 20260506122041 | 23 | 98 | 3.2 | 14.5 | 0.00 | 0.30 | 0.00 | 44 | 1004.8 |
| 20260506121557 | 23 | 74 | 4.8 | 12.9 | 0.00 | 0.30 | 0.00 | 44 | 1004.8 |
| 20260506121040 | 23 | 77 | 3.2 | 12.9 | 0.00 | 0.30 | 0.00 | 43 | 1005.0 |
| 20260506120540 | 24 | 173 | 1.6 | 11.3 | 0.00 | 0.30 | 0.00 | 45 | 1005.0 |
| 20260506115539 | 23 | 348 | 1.6 | 14.5 | 0.00 | 0.30 | 0.00 | 51 | 1005.1 |
| 20260506115040 | 22 | 73 | 3.2 | 14.5 | 0.00 | 0.30 | 0.00 | 48 | 1005.2 |
| 20260506114554 | 22 | 80 | 3.2 | 12.9 | 0.00 | 0.30 | 0.00 | 48 | 1005.3 |
| 20260506114038 | 22 | 65 | 3.2 | 12.9 | 0.00 | 0.30 | 0.00 | 47 | 1005.3 |
| 20260506113540 | 23 | 80 | 4.8 | 9.7 | 0.00 | 0.30 | 0.00 | 47 | 1005.4 |
| 20260506113054 | 23 | 154 | 1.6 | 11.3 | 0.00 | 0.30 | 0.00 | 51 | 1005.5 |
| 20260506112540 | 23 | 68 | 3.2 | 11.3 | 0.00 | 0.30 | 0.00 | 47 | 1005.5 |
| 20260506112040 | 23 | 90 | 0.0 | 4.8 | 0.00 | 0.30 | 0.00 | 52 | 1005.6 |
| 20260506111548 | 22 | 341 | 1.6 | 6.4 | 0.00 | 0.30 | 0.00 | 55 | 1005.6 |
| 20260506111040 | 22 | 285 | 0.0 | 8.0 | 0.00 | 0.30 | 0.00 | 53 | 1005.7 |
| 20260506110540 | 22 | 55 | 1.6 | 8.0 | 0.00 | 0.30 | 0.00 | 53 | 1005.8 |
| 20260506110101 | 22 | 330 | 1.6 | 8.0 | 0.00 | 0.30 | 0.00 | 58 | 1005.8 |
| 20260506105540 | 21 | 236 | 0.0 | 8.0 | 0.00 | 0.30 | 0.00 | 56 | 1005.9 |
| 20260506105042 | 21 | 0 | 0.0 | 9.7 | 0.00 | 0.30 | 0.00 | 60 | 1005.9 |
| 20260506104603 | 21 | 300 | 3.2 | 9.7 | 0.00 | 0.30 | 0.00 | 59 | 1006.1 |
| 20260506104040 | 21 | 218 | 3.2 | 9.7 | 0.00 | 0.30 | 0.00 | 62 | 1006.2 |
| 20260506103540 | 20 | 351 | 0.0 | 8.0 | 0.00 | 0.30 | 0.00 | 63 | 1006.3 |
| 20260506103050 | 20 | 81 | 0.0 | 6.4 | 0.00 | 0.30 | 0.00 | 61 | 1006.4 |
| 20260506102542 | 20 | 115 | 0.0 | 6.4 | 0.00 | 0.30 | 0.00 | 61 | 1006.5 |
| 20260506102042 | 20 | 0 | 1.6 | 6.4 | 0.00 | 0.30 | 0.00 | 63 | 1006.6 |
| 20260506101549 | 20 | 0 | 0.0 | 4.8 | 0.00 | 0.30 | 0.00 | 62 | 1006.8 |
| 20260506101044 | 20 | 329 | 1.6 | 8.0 | 0.00 | 0.30 | 0.00 | 64 | 1006.8 |
| 20260506100540 | 20 | 336 | 1.6 | 9.7 | 0.00 | 0.30 | 0.00 | 63 | 1006.9 |
| 20260506100058 | 20 | 325 | 3.2 | 9.7 | 0.00 | 0.30 | 0.00 | 64 | 1006.9 |
| 20260506095539 | 20 | 290 | 1.6 | 8.0 | 0.00 | 0.30 | 0.00 | 66 | 1006.9 |
| 20260506095036 | 20 | 330 | 3.2 | 8.0 | 0.00 | 0.30 | 0.00 | 66 | 1007.0 |
| 20260506094550 | 19 | 338 | 0.0 | 4.8 | 0.00 | 0.30 | 0.00 | 65 | 1007.1 |
| 20260506094040 | 19 | 0 | 0.0 | 4.8 | 0.00 | 0.30 | 0.00 | 64 | 1007.1 |
| 20260506093540 | 19 | 321 | 1.6 | 4.8 | 0.00 | 0.30 | 0.00 | 67 | 1007.1 |
| 20260506093051 | 19 | 318 | 0.0 | 8.0 | 0.00 | 0.30 | 0.00 | 66 | 1007.2 |
| 20260506092540 | 19 | 0 | 3.2 | 12.9 | 0.00 | 0.30 | 0.00 | 67 | 1007.2 |
| 20260506092040 | 19 | 0 | 1.6 | 12.9 | 0.00 | 0.30 | 0.00 | 67 | 1007.2 |
| 20260506091549 | 19 | 297 | 0.0 | 4.8 | 0.00 | 0.30 | 0.00 | 68 | 1007.3 |
| 20260506091040 | 19 | 0 | 0.0 | 4.8 | 0.00 | 0.30 | 0.00 | 69 | 1007.3 |
| 20260506090540 | 19 | 348 | 0.0 | 4.8 | 0.00 | 0.30 | 0.00 | 69 | 1007.4 |
| 20260506090048 | 19 | 0 | 0.0 | 6.4 | 0.00 | 0.30 | 0.00 | 67 | 1007.4 |
| 20260506085539 | 18 | 293 | 1.6 | 6.4 | 0.00 | 0.30 | 0.00 | 69 | 1007.5 |
| 20260506085039 | 18 | 0 | 0.0 | 6.4 | 0.00 | 0.30 | 0.00 | 68 | 1007.5 |
| 20260506084615 | 18 | 314 | 0.0 | 4.8 | 0.00 | 0.30 | 0.00 | 70 | 1007.6 |
| 20260506084039 | 18 | 65 | 0.0 | 4.8 | 0.00 | 0.30 | 0.00 | 70 | 1007.6 |
| 20260506083538 | 18 | 305 | 1.6 | 4.8 | 0.00 | 0.30 | 0.00 | 71 | 1007.7 |
| 20260506083049 | 18 | 209 | 0.0 | 6.4 | 0.00 | 0.30 | 0.00 | 71 | 1007.6 |
| 20260506082541 | 18 | 0 | 0.0 | 6.4 | 0.00 | 0.30 | 0.00 | 70 | 1007.7 |
| 20260506082039 | 18 | 42 | 1.6 | 6.4 | 0.00 | 0.30 | 0.00 | 71 | 1007.6 |
| 20260506081554 | 18 | 82 | 3.2 | 6.4 | 0.00 | 0.30 | 0.00 | 70 | 1007.7 |
| 20260506081040 | 18 | 0 | 1.6 | 6.4 | 0.00 | 0.30 | 0.00 | 70 | 1007.7 |
| 20260506080540 | 17 | 5 | 1.6 | 6.4 | 0.00 | 0.30 | 0.00 | 69 | 1007.6 |
| 20260506073047 | 16 | 32 | 1.6 | 9.7 | 0.00 | 0.30 | 0.00 | 80 | 1007.7 |
| 20260506072539 | 16 | 50 | 3.2 | 9.7 | 0.00 | 0.30 | 0.00 | 79 | 1007.9 |
| 20260506072039 | 16 | 71 | 3.2 | 8.0 | 0.00 | 0.30 | 0.00 | 81 | 1007.9 |
| 20260506071551 | 16 | 63 | 1.6 | 8.0 | 0.00 | 0.30 | 0.00 | 80 | 1007.9 |
| 20260506071039 | 16 | 77 | 1.6 | 6.4 | 0.00 | 0.30 | 0.00 | 79 | 1007.9 |
| 20260506070540 | 16 | 74 | 0.0 | 3.2 | 0.00 | 0.30 | 0.00 | 82 | 1007.9 |
| 20260506062039 | 15 | 333 | 0.0 | 4.8 | 0.00 | 0.30 | 0.00 | 82 | 1008.3 |
| 20260506061554 | 15 | 5 | 0.0 | 6.4 | 0.00 | 0.30 | 0.00 | 84 | 1008.2 |
| 20260506061039 | 15 | 74 | 3.2 | 6.4 | 0.00 | 0.30 | 0.00 | 84 | 1008.3 |
| 20260506060540 | 14 | 72 | 3.2 | 8.0 | 0.00 | 0.30 | 0.00 | 84 | 1008.4 |
| 20260506051039 | 13 | 0 | 0.0 | 0.0 | 0.00 | 0.30 | 0.00 | 92 | 1008.4 |
| 20260506050539 | 13 | 0 | 0.0 | 0.0 | 0.00 | 0.30 | 0.00 | 92 | 1008.4 |
| 20260506045041 | 12 | 0 | 0.0 | 0.0 | 0.00 | 0.30 | 0.00 | 93 | 1008.3 |
| 20260506044552 | 12 | 0 | 0.0 | 0.0 | 0.00 | 0.30 | 0.00 | 93 | 1008.5 |
| 20260506044041 | 12 | 0 | 0.0 | 0.0 | 0.00 | 0.30 | 0.00 | 93 | 1008.7 |
| 20260506043540 | 12 | 0 | 0.0 | 0.0 | 0.00 | 0.30 | 0.00 | 93 | 1008.7 |
| 20260506043049 | 11 | 0 | 0.0 | 0.0 | 0.00 | 0.30 | 0.00 | 92 | 1008.7 |
| 20260506042540 | 11 | 0 | 0.0 | 0.0 | 0.00 | 0.30 | 0.00 | 92 | 1008.8 |
| 20260506042040 | 11 | 0 | 0.0 | 0.0 | 0.00 | 0.30 | 0.00 | 92 | 1008.8 |
| 20260506041602 | 11 | 0 | 0.0 | 0.0 | 0.00 | 0.30 | 0.00 | 92 | 1008.9 |
| 20260506041039 | 11 | 0 | 0.0 | 0.0 | 0.00 | 0.30 | 0.00 | 92 | 1008.8 |
| 20260506040539 | 11 | 0 | 0.0 | 0.0 | 0.00 | 0.30 | 0.00 | 92 | 1008.8 |
| 20260506040054 | 11 | 0 | 0.0 | 0.0 | 0.00 | 0.30 | 0.00 | 91 | 1008.5 |
| 20260506035539 | 11 | 0 | 0.0 | 1.6 | 0.00 | 0.30 | 0.00 | 91 | 1008.7 |
| 20260506035039 | 11 | 0 | 0.0 | 3.2 | 0.00 | 0.30 | 0.00 | 91 | 1008.8 |
| 20260506034556 | 11 | 0 | 0.0 | 3.2 | 0.00 | 0.30 | 0.00 | 91 | 1008.9 |
| 20260506034041 | 11 | 301 | 0.0 | 3.2 | 0.00 | 0.30 | 0.00 | 91 | 1008.9 |
| 20260506033539 | 11 | 0 | 0.0 | 0.0 | 0.00 | 0.30 | 0.00 | 91 | 1008.7 |
| 20260506033051 | 11 | 0 | 0.0 | 1.6 | 0.00 | 0.30 | 0.00 | 91 | 1008.7 |
| 20260506032541 | 11 | 0 | 0.0 | 1.6 | 0.00 | 0.30 | 0.00 | 91 | 1008.6 |
| 20260506032041 | 11 | 0 | 0.0 | 3.2 | 0.00 | 0.30 | 0.00 | 90 | 1008.3 |
| 20260506031553 | 11 | 0 | 0.0 | 3.2 | 0.00 | 0.30 | 0.00 | 90 | 1008.3 |
| 20260506031040 | 11 | 329 | 0.0 | 3.2 | 0.00 | 0.30 | 0.00 | 91 | 1008.3 |
| 20260506030542 | 11 | 0 | 0.0 | 3.2 | 0.00 | 0.30 | 0.00 | 90 | 1008.5 |
| 20260506030049 | 12 | 0 | 0.0 | 3.2 | 0.00 | 0.30 | 0.00 | 90 | 1008.4 |
| 20260506025539 | 12 | 0 | 0.0 | 1.6 | 0.00 | 0.30 | 0.00 | 90 | 1008.4 |
| 20260506025039 | 12 | 0 | 0.0 | 1.6 | 0.00 | 0.30 | 0.00 | 90 | 1008.4 |
| 20260506024552 | 12 | 0 | 0.0 | 0.0 | 0.00 | 0.30 | 0.00 | 90 | 1008.5 |
| 20260506024040 | 12 | 0 | 0.0 | 0.0 | 0.00 | 0.30 | 0.00 | 90 | 1008.6 |
| 20260506023540 | 12 | 0 | 0.0 | 0.0 | 0.00 | 0.30 | 0.00 | 90 | 1008.6 |
| 20260506023102 | 12 | 0 | 0.0 | 0.0 | 0.00 | 0.30 | 0.00 | 90 | 1008.6 |
| 20260506022539 | 12 | 0 | 0.0 | 0.0 | 0.00 | 0.30 | 0.00 | 90 | 1008.6 |
| 20260506022039 | 12 | 0 | 0.0 | 0.0 | 0.00 | 0.30 | 0.00 | 90 | 1008.6 |
| 20260506021609 | 12 | 0 | 0.0 | 0.0 | 0.00 | 0.30 | 0.00 | 90 | 1008.6 |
| 20260506021044 | 12 | 0 | 0.0 | 3.2 | 0.00 | 0.30 | 0.00 | 90 | 1008.4 |
| 20260506020539 | 12 | 0 | 0.0 | 3.2 | 0.00 | 0.30 | 0.00 | 90 | 1008.5 |
| 20260506020050 | 12 | 0 | 0.0 | 1.6 | 0.00 | 0.30 | 0.00 | 89 | 1008.4 |
| 20260506015541 | 12 | 0 | 0.0 | 1.6 | 0.00 | 0.30 | 0.00 | 90 | 1008.5 |
| 20260506015044 | 12 | 0 | 0.0 | 0.0 | 0.00 | 0.30 | 0.00 | 89 | 1008.5 |
| 20260506014553 | 12 | 0 | 0.0 | 0.0 | 0.00 | 0.30 | 0.00 | 89 | 1008.4 |
| 20260506014042 | 13 | 0 | 0.0 | 1.6 | 0.00 | 0.30 | 0.00 | 89 | 1008.5 |
| 20260506013541 | 13 | 0 | 0.0 | 1.6 | 0.00 | 0.30 | 0.00 | 89 | 1008.6 |
| 20260506013059 | 13 | 0 | 0.0 | 1.6 | 0.00 | 0.30 | 0.00 | 89 | 1008.6 |
| 20260506012539 | 13 | 0 | 0.0 | 3.2 | 0.00 | 0.30 | 0.00 | 89 | 1008.8 |
| 20260506012040 | 13 | 0 | 0.0 | 4.8 | 0.00 | 0.30 | 0.00 | 89 | 1008.8 |
| 20260506011606 | 13 | 206 | 0.0 | 4.8 | 0.00 | 0.30 | 0.00 | 89 | 1008.9 |
| 20260506011039 | 13 | 246 | 0.0 | 11.3 | 0.00 | 0.30 | 0.00 | 89 | 1008.8 |
| 20260506010539 | 13 | 0 | 1.6 | 11.3 | 0.00 | 0.30 | 0.00 | 89 | 1008.8 |
| 20260506010055 | 13 | 178 | 0.0 | 8.0 | 0.00 | 0.30 | 0.00 | 89 | 1008.8 |
| 20260506005543 | 13 | 207 | 1.6 | 8.0 | 0.00 | 0.30 | 0.00 | 89 | 1008.8 |
| 20260506005038 | 13 | 0 | 0.0 | 4.8 | 0.00 | 0.30 | 0.00 | 89 | 1008.8 |
| 20260506004554 | 13 | 161 | 0.0 | 4.8 | 0.00 | 0.30 | 0.00 | 89 | 1008.7 |
| 20260506004039 | 13 | 208 | 0.0 | 4.8 | 0.00 | 0.30 | 0.00 | 89 | 1008.6 |
| 20260506003540 | 13 | 267 | 0.0 | 4.8 | 0.00 | 0.30 | 0.00 | 89 | 1008.6 |
| 20260506003049 | 13 | 208 | 0.0 | 1.6 | 0.00 | 0.30 | 0.00 | 89 | 1008.6 |
| 20260506002539 | 13 | 0 | 0.0 | 3.2 | 0.00 | 0.30 | 0.00 | 89 | 1008.6 |
| 20260506002039 | 13 | 0 | 0.0 | 4.8 | 0.00 | 0.30 | 0.00 | 88 | 1008.5 |
| 20260506001557 | 13 | 178 | 0.0 | 6.4 | 0.00 | 0.30 | 0.00 | 89 | 1008.5 |
| 20260506001037 | 13 | 0 | 0.0 | 6.4 | 0.00 | 0.30 | 0.00 | 88 | 1008.4 |
| 20260506000542 | 13 | 0 | 0.0 | 4.8 | 0.00 | 0.30 | 0.00 | 88 | 1008.5 |
| 20260506000057 | 13 | 0 | 0.0 | 4.8 | 0.00 | 0.30 | 0.00 | 88 | 1008.5 |
| 20260505235539 | 13 | 192 | 0.0 | 3.2 | 0.00 | 0.30 | 0.00 | 88 | 1008.4 |
| 20260505235039 | 13 | 0 | 0.0 | 3.2 | 0.00 | 0.30 | 0.00 | 88 | 1008.4 |
| 20260505234555 | 14 | 0 | 0.0 | 3.2 | 0.00 | 0.30 | 0.00 | 88 | 1008.3 |
| 20260505234039 | 14 | 215 | 0.0 | 4.8 | 0.00 | 0.30 | 0.00 | 88 | 1008.4 |
| 20260505233540 | 14 | 0 | 0.0 | 6.4 | 0.00 | 0.30 | 0.00 | 88 | 1008.3 |
| 20260505233053 | 14 | 215 | 1.6 | 6.4 | 0.00 | 0.30 | 0.00 | 88 | 1008.3 |
| 20260505232539 | 14 | 0 | 0.0 | 6.4 | 0.00 | 0.30 | 0.00 | 88 | 1008.3 |
| 20260505232043 | 14 | 0 | 0.0 | 6.4 | 0.00 | 0.30 | 0.00 | 88 | 1008.3 |
| 20260505231608 | 14 | 0 | 0.0 | 6.4 | 0.00 | 0.30 | 0.00 | 88 | 1008.3 |
| 20260505231039 | 14 | 207 | 0.0 | 8.0 | 0.00 | 0.30 | 0.00 | 88 | 1008.1 |
| 20260505230539 | 14 | 271 | 1.6 | 8.0 | 0.00 | 0.30 | 0.00 | 88 | 1008.2 |
| 20260505230050 | 14 | 0 | 0.0 | 3.2 | 0.00 | 0.30 | 0.00 | 89 | 1008.1 |
| 20260505225539 | 13 | 317 | 0.0 | 3.2 | 0.00 | 0.30 | 0.00 | 89 | 1008.1 |
| 20260505225039 | 13 | 0 | 0.0 | 1.6 | 0.00 | 0.30 | 0.00 | 89 | 1008.1 |
| 20260505224555 | 13 | 0 | 0.0 | 3.2 | 0.00 | 0.30 | 0.00 | 88 | 1008.1 |
| 20260505224040 | 13 | 331 | 0.0 | 3.2 | 0.00 | 0.30 | 0.00 | 88 | 1007.9 |
| 20260505223537 | 13 | 0 | 0.0 | 6.4 | 0.00 | 0.30 | 0.00 | 88 | 1007.9 |
| 20260505223053 | 13 | 331 | 0.0 | 6.4 | 0.00 | 0.30 | 0.00 | 88 | 1007.8 |
| 20260505222542 | 13 | 304 | 0.0 | 6.4 | 0.00 | 0.30 | 0.00 | 88 | 1007.9 |
| 20260505222038 | 13 | 267 | 0.0 | 8.0 | 0.00 | 0.30 | 0.00 | 88 | 1007.8 |
| 20260505221549 | 14 | 0 | 0.0 | 9.7 | 0.00 | 0.30 | 0.00 | 88 | 1007.7 |
| 20260505221038 | 14 | 179 | 1.6 | 9.7 | 0.00 | 0.30 | 0.00 | 88 | 1007.7 |
| 20260505220537 | 14 | 306 | 0.0 | 6.4 | 0.00 | 0.30 | 0.00 | 88 | 1007.6 |
| 20260505220059 | 14 | 0 | 0.0 | 3.2 | 0.00 | 0.30 | 0.00 | 88 | 1007.6 |
| 20260505215537 | 14 | 0 | 0.0 | 6.4 | 0.00 | 0.30 | 0.30 | 88 | 1007.6 |
| 20260505215037 | 14 | 0 | 0.0 | 6.4 | 0.00 | 0.30 | 0.30 | 88 | 1007.4 |
| 20260505214556 | 14 | 0 | 1.6 | 6.4 | 0.00 | 0.30 | 0.30 | 88 | 1007.2 |
| 20260505214038 | 14 | 215 | 1.6 | 4.8 | 0.00 | 0.30 | 0.30 | 88 | 1007.1 |
| 20260505213538 | 14 | 229 | 0.0 | 6.4 | 0.00 | 0.30 | 0.30 | 88 | 1006.9 |
| 20260505213048 | 14 | 224 | 0.0 | 6.4 | 0.00 | 0.30 | 0.30 | 88 | 1006.9 |
| 20260505212538 | 14 | 246 | 0.0 | 4.8 | 0.00 | 0.30 | 0.30 | 88 | 1006.8 |
| 20260505212038 | 14 | 0 | 0.0 | 0.0 | 0.00 | 0.30 | 0.30 | 88 | 1006.8 |
| 20260505211549 | 14 | 0 | 0.0 | 0.0 | 0.00 | 0.30 | 0.30 | 88 | 1006.7 |
| 20260505211038 | 14 | 0 | 0.0 | 0.0 | 0.00 | 0.30 | 0.30 | 88 | 1006.6 |
| 20260505210537 | 15 | 0 | 0.0 | 0.0 | 0.00 | 0.30 | 0.30 | 88 | 1006.6 |
| 20260505210051 | 15 | 0 | 0.0 | 0.0 | 0.00 | 0.30 | 0.30 | 88 | 1006.6 |
| 20260505205538 | 15 | 0 | 0.0 | 0.0 | 0.00 | 0.30 | 0.30 | 88 | 1006.5 |
| 20260505205038 | 15 | 0 | 0.0 | 0.0 | 0.00 | 0.30 | 0.30 | 87 | 1006.5 |
| 20260505204553 | 15 | 0 | 0.0 | 0.0 | 0.00 | 0.30 | 0.30 | 87 | 1006.4 |
| 20260505204037 | 15 | 0 | 0.0 | 0.0 | 0.00 | 0.30 | 0.30 | 87 | 1006.4 |
| 20260505203537 | 15 | 0 | 0.0 | 1.6 | 0.00 | 0.30 | 0.30 | 86 | 1006.4 |
| 20260505203110 | 15 | 0 | 0.0 | 1.6 | 0.00 | 0.30 | 0.30 | 86 | 1006.2 |
| 20260505202537 | 15 | 0 | 0.0 | 4.8 | 0.00 | 0.30 | 0.30 | 85 | 1006.2 |
| 20260505202037 | 15 | 0 | 0.0 | 4.8 | 0.03 | 0.30 | 0.30 | 85 | 1006.1 |
| 20260505201554 | 15 | 0 | 0.0 | 4.8 | 0.05 | 0.30 | 0.30 | 84 | 1006.2 |
| 20260505201038 | 15 | 0 | 0.0 | 4.8 | 0.08 | 0.30 | 0.30 | 84 | 1006.2 |
| 20260505200538 | 15 | 155 | 0.0 | 6.4 | 0.08 | 0.30 | 0.30 | 82 | 1006.0 |
| 20260505200053 | 15 | 0 | 1.6 | 12.9 | 0.08 | 0.30 | 0.30 | 82 | 1005.8 |
| 20260505195539 | 15 | 231 | 1.6 | 12.9 | 0.08 | 0.30 | 0.30 | 83 | 1005.5 |
| 20260505195037 | 15 | 291 | 1.6 | 19.3 | 0.10 | 0.30 | 0.30 | 83 | 1005.4 |
| 20260505194548 | 15 | 5 | 4.8 | 19.3 | 0.10 | 0.28 | 0.28 | 83 | 1005.3 |
| 20260505194040 | 15 | 310 | 1.6 | 14.5 | 0.10 | 0.28 | 0.28 | 83 | 1005.5 |
| 20260505193540 | 15 | 298 | 3.2 | 19.3 | 0.13 | 0.28 | 0.28 | 83 | 1005.6 |
| 20260505193052 | 15 | 352 | 6.4 | 19.3 | 0.18 | 0.28 | 0.28 | 82 | 1005.4 |
| 20260505192540 | 15 | 321 | 6.4 | 19.3 | 0.18 | 0.28 | 0.28 | 82 | 1005.4 |
| 20260505192042 | 15 | 319 | 8.0 | 19.3 | 0.20 | 0.28 | 0.28 | 81 | 1005.6 |
| 20260505191600 | 16 | 283 | 4.8 | 22.5 | 0.25 | 0.25 | 0.25 | 80 | 1005.9 |
| 20260505191038 | 16 | 209 | 4.8 | 22.5 | 0.23 | 0.23 | 0.23 | 80 | 1005.9 |
| 20260505190539 | 16 | 267 | 4.8 | 22.5 | 0.23 | 0.23 | 0.23 | 79 | 1005.9 |
| 20260505190048 | 16 | 254 | 6.4 | 20.9 | 0.23 | 0.23 | 0.23 | 80 | 1005.8 |
| 20260505185540 | 16 | 324 | 3.2 | 17.7 | 0.20 | 0.20 | 0.20 | 80 | 1005.8 |
| 20260505185040 | 16 | 202 | 4.8 | 17.7 | 0.18 | 0.18 | 0.18 | 79 | 1005.6 |
| 20260505184548 | 16 | 344 | 4.8 | 19.3 | 0.18 | 0.18 | 0.18 | 78 | 1005.5 |
| 20260505184040 | 16 | 223 | 8.0 | 19.3 | 0.18 | 0.18 | 0.18 | 76 | 1005.4 |
| 20260505183542 | 16 | 191 | 1.6 | 19.3 | 0.15 | 0.15 | 0.15 | 77 | 1005.1 |
| 20260505183053 | 17 | 229 | 4.8 | 19.3 | 0.10 | 0.10 | 0.10 | 76 | 1005.1 |
| 20260505182538 | 17 | 202 | 6.4 | 25.7 | 0.08 | 0.08 | 0.08 | 73 | 1004.8 |
| 20260505182039 | 18 | 194 | 6.4 | 30.6 | 0.05 | 0.05 | 0.05 | 68 | 1004.7 |
| 20260505181556 | 19 | 277 | 6.4 | 41.8 | 0.00 | 0.00 | 0.00 | 61 | 1004.6 |
| 20260505181040 | 20 | 214 | 9.7 | 41.8 | 0.00 | 0.00 | 0.00 | 57 | 1004.6 |
| 20260505180540 | 21 | 276 | 8.0 | 41.8 | 0.00 | 0.00 | 0.00 | 52 | 1004.4 |
| 20260505180100 | 22 | 214 | 6.4 | 24.1 | 0.00 | 0.00 | 0.00 | 48 | 1003.9 |
| 20260505175539 | 23 | 224 | 0.0 | 12.9 | 0.00 | 0.00 | 0.00 | 46 | 1003.6 |
| 20260505175039 | 23 | 0 | 0.0 | 6.4 | 0.00 | 0.00 | 0.00 | 45 | 1003.1 |
| 20260505174547 | 23 | 321 | 1.6 | 6.4 | 0.00 | 0.00 | 0.00 | 44 | 1002.9 |
| 20260505174039 | 23 | 315 | 1.6 | 4.8 | 0.00 | 0.00 | 0.00 | 43 | 1002.8 |
| 20260505173539 | 23 | 65 | 0.0 | 3.2 | 0.00 | 0.00 | 0.00 | 41 | 1002.8 |
| 20260505173047 | 23 | 0 | 0.0 | 0.0 | 0.00 | 0.00 | 0.00 | 41 | 1002.8 |
| 20260505172539 | 24 | 0 | 0.0 | 0.0 | 0.00 | 0.00 | 0.00 | 40 | 1002.7 |
| 20260505172039 | 24 | 0 | 0.0 | 3.2 | 0.00 | 0.00 | 0.00 | 40 | 1002.7 |
| 20260505171554 | 24 | 0 | 0.0 | 3.2 | 0.00 | 0.00 | 0.00 | 38 | 1002.7 |
| 20260505171039 | 25 | 0 | 0.0 | 4.8 | 0.00 | 0.00 | 0.00 | 39 | 1002.7 |
| 20260505170539 | 25 | 0 | 0.0 | 4.8 | 0.00 | 0.00 | 0.00 | 37 | 1002.7 |
| 20260505170108 | 25 | 0 | 0.0 | 4.8 | 0.00 | 0.00 | 0.00 | 37 | 1002.8 |
| 20260505165539 | 25 | 53 | 0.0 | 1.6 | 0.00 | 0.00 | 0.00 | 36 | 1002.7 |
| 20260505165042 | 25 | 0 | 0.0 | 4.8 | 0.00 | 0.00 | 0.00 | 36 | 1002.8 |
| 20260505164553 | 25 | 0 | 0.0 | 4.8 | 0.00 | 0.00 | 0.00 | 36 | 1002.8 |
| 20260505164040 | 25 | 53 | 0.0 | 6.4 | 0.00 | 0.00 | 0.00 | 35 | 1002.8 |
| 20260505163539 | 25 | 0 | 0.0 | 8.0 | 0.00 | 0.00 | 0.00 | 36 | 1002.8 |
| 20260505163049 | 25 | 95 | 0.0 | 8.0 | 0.00 | 0.00 | 0.00 | 35 | 1002.9 |
| 20260505162538 | 25 | 64 | 1.6 | 8.0 | 0.00 | 0.00 | 0.00 | 34 | 1002.8 |
| 20260505162037 | 25 | 0 | 0.0 | 9.7 | 0.00 | 0.00 | 0.00 | 34 | 1002.9 |
| 20260505161556 | 25 | 224 | 1.6 | 9.7 | 0.00 | 0.00 | 0.00 | 34 | 1002.9 |
| 20260505161037 | 25 | 0 | 0.0 | 8.0 | 0.00 | 0.00 | 0.00 | 34 | 1003.0 |
| 20260505160537 | 26 | 74 | 1.6 | 8.0 | 0.00 | 0.00 | 0.00 | 34 | 1003.1 |
| 20260505153052 | 26 | 76 | 3.2 | 16.1 | 0.00 | 0.00 | 0.00 | 32 | 1003.2 |
| 20260505152537 | 26 | 102 | 3.2 | 11.3 | 0.00 | 0.00 | 0.00 | 32 | 1003.2 |
| 20260505152039 | 27 | 0 | 1.6 | 6.4 | 0.00 | 0.00 | 0.00 | 31 | 1003.3 |
| 20260505151602 | 27 | 352 | 0.0 | 4.8 | 0.00 | 0.00 | 0.00 | 32 | 1003.4 |
| 20260505151037 | 27 | 244 | 1.6 | 4.8 | 0.00 | 0.00 | 0.00 | 31 | 1003.4 |
| 20260505150542 | 27 | 0 | 1.6 | 6.4 | 0.00 | 0.00 | 0.00 | 32 | 1003.5 |
| 20260505140537 | 27 | 165 | 0.0 | 8.0 | 0.00 | 0.00 | 0.00 | 29 | 1004.1 |